Location: Filler
(36.7551°N, 30.4456°E)
Time: 09:55:57
(UTC+00:00)

CZ-2D R/B - Pass Details

Date: 19 June 2024
Orbit: 789 x 844 km, 98.8° (Epoch: 22 July)

Event Time Altitude Azimuth Distance (km) Brightness Sun altitude
Rises 00:26:27 0° 6° (N) 3,344 6.3 -20.6°
Reaches altitude 10° 00:28:52 10° 1° (N) 2,400 5.3 -20.3°
Maximum altitude 00:33:56 47° 289° (WNW) 1,049 2.5 -19.7°
Enters shadow 00:35:38 35° 241° (WSW) 1,274 2.6 -19.5°
